Regional Weather Roundup
Issued by NWS

Home | Current Version | Previous Version | Graphics & Text | Print | Product List | Glossary On
Versions: 1 2 3 4 5 6 7 8 9 10 11 12 13 14 15 16 17 18 19 20 21 22 23 24 25 26 27
000
ASUS45 KBOU 010507
RWRCO

WEATHER ROUNDUP FOR COLORADO
NATIONAL WEATHER SERVICE DENVER/BOULDER CO
1100 PM MDT FRI OCT 31 2014

NOTE: "FAIR" INDICATES FEW OR NO CLOUDS BELOW 12000 FEET WITH NO
SIGNIFICANT WEATHER AND/OR OBSTRUCTIONS TO VISIBILITY.

COZ001>005-013-030-031-010600-
...NORTHWEST COLORADO...

CITY           SKY/WX    TMP DP  RH WIND       PRES   REMARKS
CRAIG          CLEAR     36  27  69 CALM      30.07S
HAYDEN         NOT AVBL
MEEKER         PTCLDY    43  29  57 NE6       30.08S
MOUNT WERNER   NOT AVBL
STEAMBOAT SPGS NOT AVBL
WALDEN         NOT AVBL
$$

COZ006>008-011-010600-
...WEST CENTRAL VALLEYS...

CITY           SKY/WX    TMP DP  RH WIND       PRES   REMARKS
GRAND JUNCTION PTCLDY    57  26  30 E10       30.00S
MONTROSE       NOT AVBL
EAGLE          NOT AVBL
RIFLE          NOT AVBL
DELTA          NOT AVBL
NUCLA          NOT AVBL
$$

COZ017>023-064>068-010600-
...SOUTHWEST COLORADO...

CITY           SKY/WX    TMP DP  RH WIND       PRES   REMARKS
DURANGO        CLOUDY    53  35  50 E10       30.23S
CORTEZ         LGT RAIN  58  40  51 SE10      30.15R
PAGOSA SPRINGS NOT AVBL
TELLURIDE      NOT AVBL
WOLF CREEK PAS NOT AVBL
$$

COZ009-010-012-014-032>034-037-058>063-010600-
...CENTRAL COLORADO...

CITY           SKY/WX    TMP DP  RH WIND       PRES   REMARKS
ASPEN          PTCLDY    39  23  52 SW9       30.17S
BUENA VISTA    NOT AVBL
COPPER MTN     NOT AVBL
BERTHOUD PASS  NOT AVBL
COTTONWOOD PAS NOT AVBL
GUNNISON       NOT AVBL
KREMMLING      NOT AVBL
LEADVILLE      NOT AVBL
SALIDA         NOT AVBL
SUNLIGHT       NOT AVBL
WILKERSON PASS NOT AVBL
$$

COZ069>075-010600-
...SAN LUIS VALLEY/SANGRE DE CRISTO MOUNTAINS...

CITY           SKY/WX    TMP DP  RH WIND       PRES   REMARKS
ALAMOSA        PTCLDY    44  27  51 S10       30.28R
LA VETA PASS   NOT AVBL
SAGUACHE       NOT AVBL
$$

COZ035-036-038>040-010600-
...NORTHERN COLORADO FRONT RANGE...

CITY           SKY/WX    TMP DP  RH WIND       PRES   REMARKS
DENVER INTL AP MOCLDY    39  29  67 W7        30.06F
DMNS CITY PARK   N/A     41  32  69 S2        30.06F
AURORA         PTCLDY    40  28  62 S3        30.08F
FRONT RANGE AP NOT AVBL
ERIE MUNI ARPT NOT AVBL
BOULDER MUN AP NOT AVBL
CENTENNIAL     PTCLDY    37  28  70 S3        30.08F
BROOMFIELD     NOT AVBL
FORT COLLINS   NOT AVBL
LONGMONT       NOT AVBL
$$

COZ041-046-047-076>085-087-088-010600-
...PIKES PEAK/PALMER DIVIDE AND SOUTHERN FOOTHILLS...

CITY           SKY/WX    TMP DP  RH WIND       PRES   REMARKS
COLO. SPRINGS  NOT AVBL
A. F. ACADEMY  PTCLDY    30  24  79 N7        30.14F WCI  23
ELLICOTT       PTCLDY    36  27  69 SE8       30.13S
FALCON         NOT AVBL
FORT CARSON    MOCLDY    39  28  66 NW6       30.13F
LIMON          NOT AVBL
MONUMENT HILL  NOT AVBL
TRINIDAD       NOT AVBL
$$

COZ042>045-048>051-090-091-010600-
...NORTHEAST COLORADO...

CITY           SKY/WX    TMP DP  RH WIND       PRES   REMARKS
GREELEY ARPT   NOT AVBL
AKRON          PTCLDY    35  26  69 S15       30.09F WCI  25
BURLINGTON     NOT AVBL
WRAY           CLEAR     37  21  52 SE10G16   30.18F
STERLING       NOT AVBL
HOLYOKE        NOT AVBL
FORT MORGAN    NOT AVBL
$$

COZ086-089-092>099-010600-
...SOUTHEAST COLORADO...

CITY           SKY/WX    TMP DP  RH WIND       PRES   REMARKS
PUEBLO         NOT AVBL
LA JUNTA       NOT AVBL
LAMAR          NOT AVBL
SPRINGFIELD      N/A     40  27  59 S22       30.20F
$$



USA.gov is the U.S. government's official web portal to all federal, state and local government web resources and services.